EW0415 Weather Reports


time (UTC)temp
C
wind
direction
speed
KPH
gust
KPH
rain 1hr
cm
rain 24hr
cm
rain mn
cm
humidity
%
barometer
mb
20260903015016 15 196 0.0 6.4 0.00 0.00 0.00 84 1020.4
20260903014532 15 0 0.0 11.3 0.00 0.00 0.00 83 1020.3
20260903014018 15 194 3.2 16.1 0.00 0.00 0.00 82 1020.3
20260903013515 15 271 4.8 19.3 0.00 0.00 0.00 82 1020.3
20260903013035 15 329 4.8 19.3 0.00 0.00 0.00 81 1020.2
20260903012521 15 330 6.4 16.1 0.00 0.00 0.00 81 1020.1
20260903012015 15 271 6.4 17.7 0.00 0.00 0.00 81 1020.1
20260903011535 15 265 6.4 17.7 0.00 0.00 0.00 81 1020.1
20260903011021 15 265 6.4 16.1 0.00 0.00 0.00 81 1020.1
20260903010519 15 264 4.8 12.9 0.00 0.00 0.00 82 1020.0
20260903010032 15 336 6.4 16.1 0.00 0.00 0.00 82 1020.1
20260903005518 15 318 4.8 17.7 0.00 0.00 0.00 82 1020.3
20260903005020 15 266 4.8 17.7 0.00 0.00 0.00 82 1020.2
20260903004532 15 312 4.8 14.5 0.00 0.00 0.00 83 1020.2
20260903004018 15 309 4.8 16.1 0.00 0.00 0.00 83 1020.1
20260903003520 15 318 6.4 16.1 0.00 0.00 0.00 83 1020.3
20260903003032 15 304 6.4 17.7 0.00 0.00 0.00 84 1020.2
20260903002521 15 325 8.0 17.7 0.00 0.00 0.00 84 1020.2
20260903002020 15 292 6.4 16.1 0.00 0.00 0.00 84 1020.3
20260903001533 15 296 4.8 17.7 0.00 0.00 0.00 84 1020.3
20260903001022 15 301 4.8 17.7 0.00 0.00 0.00 84 1020.3
20260903000519 15 317 4.8 19.3 0.00 0.00 0.00 85 1020.3
20260903000036 14 302 8.0 19.3 0.00 0.00 0.00 85 1020.3
20260902235518 14 315 4.8 16.1 0.00 0.00 0.00 85 1020.3
20260902235019 14 320 4.8 16.1 0.00 0.00 0.00 85 1020.2
20260902234533 14 327 6.4 20.9 0.00 0.00 0.00 85 1020.1
20260902234018 14 313 6.4 20.9 0.00 0.00 0.00 86 1020.1
20260902233520 13 284 6.4 17.7 0.00 0.00 0.00 86 1020.0
20260902233033 13 333 4.8 17.7 0.00 0.00 0.00 86 1019.9
20260902232519 13 308 6.4 17.7 0.00 0.00 0.00 86 1020.0
20260902232019 13 298 4.8 12.9 0.00 0.00 0.00 86 1019.9
20260902231534 12 314 1.6 8.0 0.00 0.00 0.00 86 1019.9
20260902231018 12 324 0.0 6.4 0.00 0.00 0.00 86 1019.8
20260902230518 12 323 1.6 6.4 0.00 0.00 0.00 86 1019.7
20260902230034 12 323 0.0 6.4 0.00 0.00 0.00 85 1019.8
20260902225516 12 323 1.6 8.0 0.00 0.00 0.00 85 1019.7
20260902225018 12 0 3.2 8.0 0.00 0.00 0.00 85 1019.6
20260902224542 12 331 1.6 6.4 0.00 0.00 0.00 85 1019.7
20260902224017 12 332 0.0 6.4 0.00 0.00 0.00 85 1019.6
20260902223521 11 332 1.6 6.4 0.00 0.00 0.00 85 1019.5
20260902223036 11 331 0.0 4.8 0.00 0.00 0.00 85 1019.3
20260902222522 11 0 0.0 4.8 0.00 0.00 0.00 85 1019.3
20260902222022 11 0 0.0 4.8 0.00 0.00 0.00 84 1019.2
20260902221540 11 0 0.0 6.4 0.00 0.00 0.00 84 1019.2
20260902221019 11 331 0.0 6.4 0.00 0.00 0.00 84 1019.0
20260902220517 11 331 0.0 8.0 0.00 0.00 0.00 84 1019.0
20260902220044 11 0 0.0 8.0 0.00 0.00 0.00 84 1018.9
20260902215518 11 331 1.6 6.4 0.00 0.00 0.00 84 1018.9
20260902215015 11 324 1.6 6.4 0.00 0.00 0.00 84 1018.8
20260902214535 11 324 1.6 6.4 0.00 0.00 0.00 84 1018.8
20260902214016 11 0 0.0 8.0 0.00 0.00 0.00 84 1018.6
20260902213515 11 0 1.6 8.0 0.00 0.00 0.00 83 1018.6
20260902213033 11 0 0.0 6.4 0.00 0.00 0.00 83 1018.5
20260902212521 11 0 1.6 6.4 0.00 0.00 0.00 83 1018.4
20260902212019 11 321 1.6 8.0 0.00 0.00 0.00 83 1018.4
20260902211535 11 321 1.6 8.0 0.00 0.00 0.00 83 1018.3
20260902211019 11 321 1.6 8.0 0.00 0.00 0.00 83 1018.2
20260902210518 11 320 0.0 8.0 0.00 0.00 0.00 83 1018.3
20260902210106 11 319 1.6 8.0 0.00 0.00 0.00 83 1018.2
20260902205518 11 316 1.6 8.0 0.00 0.00 0.00 82 1018.1
20260902205019 12 314 1.6 6.4 0.00 0.00 0.00 82 1018.0
20260902204541 12 313 1.6 6.4 0.00 0.00 0.00 82 1017.9
20260902204019 12 310 0.0 6.4 0.00 0.00 0.00 82 1017.8
20260902203516 12 310 1.6 6.4 0.00 0.00 0.00 82 1017.9
20260902203036 12 309 1.6 11.3 0.00 0.00 0.00 82 1017.9
20260902202518 13 307 1.6 11.3 0.00 0.00 0.00 83 1017.9
20260902202021 13 304 3.2 11.3 0.00 0.00 0.00 83 1017.7
20260902201536 13 0 3.2 8.0 0.00 0.00 0.00 83 1017.6
20260902201018 12 300 3.2 12.9 0.00 0.00 0.00 83 1017.6
20260902200519 12 302 4.8 12.9 0.00 0.00 0.00 83 1017.6
20260902200037 12 0 3.2 12.9 0.00 0.00 0.00 82 1017.6
20260902195518 12 289 1.6 12.9 0.00 0.00 0.00 82 1017.3
20260902195018 12 288 1.6 12.9 0.00 0.00 0.00 82 1017.3
20260902194536 12 286 3.2 11.3 0.00 0.00 0.00 81 1017.2
20260902194015 12 284 3.2 11.3 0.00 0.00 0.00 81 1017.2
20260902193520 12 296 3.2 12.9 0.00 0.00 0.00 81 1017.1
20260902193035 12 292 3.2 14.5 0.00 0.00 0.00 81 1017.2
20260902192519 12 289 3.2 14.5 0.00 0.03 0.00 80 1017.1
20260902192019 12 290 4.8 14.5 0.00 0.03 0.00 80 1016.9
20260902191539 13 297 1.6 14.5 0.00 0.03 0.00 80 1016.9
20260902191018 13 294 3.2 14.5 0.00 0.03 0.00 79 1016.7
20260902190517 13 298 4.8 14.5 0.00 0.03 0.00 79 1016.7
20260902190040 13 307 3.2 14.5 0.00 0.03 0.00 79 1016.6
20260902185518 13 311 3.2 14.5 0.00 0.03 0.00 79 1016.6
20260902185015 13 275 4.8 12.9 0.00 0.03 0.00 79 1016.5
20260902184536 13 311 4.8 12.9 0.00 0.03 0.00 78 1016.6
20260902184021 13 294 4.8 12.9 0.00 0.03 0.00 78 1016.5
20260902183515 13 284 3.2 16.1 0.00 0.03 0.00 78 1016.6
20260902183035 13 255 4.8 19.3 0.00 0.03 0.00 78 1016.5
20260902182523 13 311 6.4 19.3 0.00 0.03 0.00 78 1016.6
20260902182019 13 313 8.0 19.3 0.00 0.03 0.00 78 1016.5
20260902181533 13 298 3.2 14.5 0.00 0.03 0.00 78 1016.6
20260902181023 13 318 6.4 14.5 0.00 0.03 0.00 77 1016.5
20260902180516 13 303 4.8 24.1 0.00 0.03 0.00 77 1016.5
20260902180043 13 281 6.4 24.1 0.00 0.03 0.00 77 1016.5
20260902175516 13 320 4.8 14.5 0.00 0.03 0.00 77 1016.5
20260902175018 13 311 4.8 14.5 0.00 0.03 0.00 76 1016.4
20260902174535 13 300 4.8 12.9 0.00 0.03 0.00 76 1016.4
20260902174019 13 281 4.8 12.9 0.00 0.03 0.00 76 1016.6
20260902173520 13 305 3.2 14.5 0.00 0.03 0.00 75 1016.6
20260902173035 13 289 3.2 14.5 0.00 0.03 0.00 75 1016.5
20260902172519 13 309 3.2 14.5 0.00 0.03 0.00 75 1016.6
20260902172019 13 257 6.4 14.5 0.00 0.03 0.00 75 1016.7
20260902171538 13 296 4.8 14.5 0.00 0.03 0.00 74 1016.6
20260902171020 13 256 8.0 14.5 0.00 0.03 0.00 74 1016.8
20260902170515 13 280 4.8 16.1 0.00 0.03 0.00 74 1016.6
20260902170035 13 299 4.8 16.1 0.00 0.03 0.00 74 1016.9
20260902165520 13 316 6.4 16.1 0.00 0.03 0.00 73 1016.8
20260902165017 13 302 4.8 12.9 0.00 0.03 0.00 73 1016.8
20260902164535 13 269 4.8 17.7 0.00 0.03 0.00 73 1017.0
20260902164017 13 292 3.2 17.7 0.00 0.03 0.00 72 1017.0
20260902163516 13 310 6.4 17.7 0.00 0.03 0.00 72 1017.0
20260902163033 13 304 4.8 16.1 0.00 0.03 0.00 72 1017.0
20260902162518 13 313 4.8 16.1 0.00 0.03 0.00 72 1017.1
20260902162018 13 297 6.4 16.1 0.00 0.03 0.00 73 1017.0
20260902161537 13 290 3.2 12.9 0.00 0.03 0.00 73 1017.3
20260902161018 13 291 1.6 12.9 0.00 0.03 0.00 73 1017.2
20260902160515 13 295 3.2 12.9 0.00 0.03 0.00 73 1017.4
20260902160037 13 269 1.6 9.7 0.00 0.03 0.00 73 1017.2
20260902155518 13 267 0.0 9.7 0.00 0.03 0.00 73 1017.3
20260902155020 13 269 1.6 11.3 0.00 0.03 0.00 73 1017.2
20260902154533 13 311 3.2 11.3 0.00 0.03 0.00 73 1017.3
20260902154019 13 0 1.6 14.5 0.00 0.03 0.00 73 1017.1
20260902153516 13 267 3.2 14.5 0.00 0.03 0.00 74 1017.3
20260902153039 13 273 4.8 14.5 0.00 0.03 0.00 74 1017.3
20260902152519 12 270 6.4 12.9 0.00 0.03 0.00 74 1017.5
20260902152018 12 0 3.2 14.5 0.00 0.03 0.00 75 1017.4
20260902151544 12 312 4.8 14.5 0.00 0.03 0.00 75 1017.4
20260902151016 12 285 4.8 12.9 0.00 0.03 0.00 75 1017.4
20260902150517 12 284 3.2 12.9 0.00 0.03 0.00 75 1017.4
20260902150037 12 283 3.2 11.3 0.00 0.03 0.00 75 1017.4
20260902145521 12 282 3.2 11.3 0.00 0.03 0.00 76 1017.3
20260902145017 12 278 3.2 14.5 0.00 0.03 0.00 76 1017.4
20260902144538 12 280 3.2 14.5 0.00 0.03 0.00 76 1017.3
20260902144018 12 277 4.8 14.5 0.00 0.03 0.00 76 1017.6
20260902143516 12 296 4.8 12.9 0.00 0.03 0.00 76 1017.4
20260902143036 12 286 1.6 11.3 0.00 0.03 0.00 77 1017.5
20260902142516 12 282 3.2 11.3 0.00 0.03 0.03 77 1017.4
20260902142016 12 281 3.2 11.3 0.00 0.03 0.03 77 1017.7
20260902141536 12 278 3.2 11.3 0.00 0.03 0.03 77 1017.6
20260902141021 12 277 1.6 9.7 0.00 0.03 0.03 77 1017.7
20260902140520 12 275 1.6 11.3 0.00 0.03 0.03 77 1017.8
20260902140036 12 274 1.6 11.3 0.00 0.03 0.03 77 1017.7
20260902135519 12 281 3.2 9.7 0.00 0.03 0.03 77 1017.9
20260902135019 12 284 1.6 11.3 0.00 0.03 0.03 77 1017.9
20260902134536 12 284 3.2 11.3 0.00 0.03 0.03 77 1018.0
20260902134016 12 284 1.6 11.3 0.00 0.03 0.03 77 1018.0
20260902133518 12 285 3.2 11.3 0.00 0.03 0.03 77 1017.9
20260902133035 12 277 1.6 9.7 0.00 0.03 0.03 77 1018.0
20260902132516 12 272 1.6 6.4 0.00 0.03 0.03 76 1018.0
20260902132015 12 270 0.0 6.4 0.00 0.03 0.03 76 1018.0
20260902131535 12 269 0.0 3.2 0.00 0.03 0.03 76 1018.0
20260902131019 12 0 0.0 3.2 0.00 0.03 0.03 75 1018.0
20260902130519 12 0 0.0 3.2 0.00 0.03 0.03 75 1018.0
20260902130037 12 0 0.0 3.2 0.00 0.03 0.03 75 1018.0
20260902125519 12 0 0.0 3.2 0.00 0.03 0.03 74 1018.0
20260902125020 12 0 0.0 0.0 0.00 0.03 0.03 74 1018.1
20260902124535 12 0 0.0 0.0 0.00 0.03 0.03 74 1018.1
20260902124016 12 0 0.0 0.0 0.00 0.03 0.03 74 1018.0
20260902123517 12 0 0.0 0.0 0.00 0.03 0.03 74 1018.1
20260902123034 12 0 0.0 0.0 0.00 0.03 0.03 74 1018.1
20260902122518 12 0 0.0 0.0 0.00 0.03 0.03 74 1018.2
20260902122019 12 0 0.0 1.6 0.00 0.03 0.03 74 1018.2
20260902121535 12 0 0.0 3.2 0.00 0.03 0.03 74 1018.3
20260902121021 12 0 0.0 3.2 0.00 0.03 0.03 74 1018.2
20260902120517 12 0 0.0 3.2 0.00 0.03 0.03 73 1018.3
20260902120034 12 0 0.0 4.8 0.00 0.03 0.03 73 1018.4
20260902115519 12 0 0.0 4.8 0.00 0.03 0.03 73 1018.3
20260902115019 13 0 0.0 4.8 0.00 0.03 0.03 73 1018.2
20260902114535 13 0 0.0 6.4 0.00 0.03 0.03 73 1018.1
20260902114023 13 0 0.0 6.4 0.00 0.03 0.03 73 1017.9
20260902113516 13 269 0.0 6.4 0.00 0.03 0.03 73 1018.0
20260902113031 13 270 0.0 4.8 0.00 0.03 0.03 73 1017.9
20260902112518 13 272 0.0 3.2 0.00 0.03 0.03 72 1018.0
20260902112019 13 0 0.0 4.8 0.00 0.03 0.03 72 1017.8
20260902111535 13 272 1.6 6.4 0.00 0.03 0.03 72 1017.7
20260902111017 13 273 1.6 6.4 0.00 0.03 0.03 72 1017.7
20260902110516 13 0 0.0 11.3 0.00 0.03 0.03 72 1017.7
20260902110033 13 273 4.8 11.3 0.00 0.03 0.03 71 1017.6
20260902105518 13 244 3.2 9.7 0.00 0.03 0.03 71 1017.8
20260902105019 13 253 1.6 9.7 0.00 0.03 0.03 71 1017.8
20260902104540 13 250 3.2 9.7 0.00 0.03 0.03 71 1017.8
20260902104019 13 268 3.2 14.5 0.00 0.03 0.03 70 1017.7
20260902103516 13 217 3.2 14.5 0.00 0.03 0.03 70 1017.7
20260902103036 13 238 6.4 20.9 0.00 0.03 0.03 69 1017.7
20260902102515 13 258 4.8 20.9 0.00 0.03 0.03 69 1017.5
20260902102016 13 288 1.6 6.4 0.00 0.03 0.03 68 1017.4
20260902101536 13 288 3.2 6.4 0.00 0.03 0.03 68 1017.2
20260902101017 13 0 0.0 8.0 0.00 0.03 0.03 67 1017.4
20260902100519 13 0 1.6 8.0 0.00 0.03 0.03 67 1017.4
20260902100034 13 288 0.0 8.0 0.00 0.03 0.03 67 1017.3
20260902095518 13 288 1.6 8.0 0.00 0.03 0.03 67 1017.2
20260902095018 13 290 1.6 8.0 0.00 0.03 0.03 67 1017.2
20260902094533 13 290 1.6 8.0 0.00 0.03 0.03 67 1017.2
20260902094017 12 290 1.6 11.3 0.00 0.03 0.03 67 1017.2
20260902093516 12 291 3.2 11.3 0.00 0.03 0.03 68 1017.2
20260902093037 13 294 3.2 8.0 0.00 0.03 0.03 69 1017.1
20260902092519 13 294 1.6 8.0 0.00 0.03 0.03 69 1017.1
20260902092018 13 293 1.6 6.4 0.00 0.03 0.03 68 1017.1
20260902091531 13 294 0.0 4.8 0.00 0.03 0.03 68 1017.0
20260902091016 13 294 1.6 4.8 0.00 0.03 0.03 68 1017.0
20260902090516 13 294 0.0 8.0 0.00 0.03 0.03 68 1017.0
20260902090034 13 294 1.6 8.0 0.00 0.03 0.03 67 1017.0
20260902085516 13 294 1.6 8.0 0.00 0.03 0.03 67 1017.1
20260902085018 13 296 3.2 8.0 0.00 0.03 0.03 66 1016.9
20260902084534 13 0 1.6 8.0 0.00 0.03 0.03 66 1016.9
20260902084017 13 296 1.6 8.0 0.00 0.03 0.03 66 1016.7
20260902083515 13 298 0.0 6.4 0.00 0.03 0.03 66 1016.6
20260902083032 13 298 1.6 12.9 0.00 0.03 0.03 66 1016.6
20260902082522 13 300 1.6 12.9 0.00 0.03 0.03 66 1016.6
20260902082020 13 252 4.8 12.9 0.00 0.03 0.03 65 1016.6
20260902081535 13 264 1.6 11.3 0.00 0.03 0.03 65 1016.5
20260902081016 14 267 4.8 12.9 0.00 0.03 0.03 65 1016.6
20260902080516 14 258 4.8 12.9 0.00 0.03 0.03 65 1016.6
20260902080034 14 261 3.2 16.1 0.00 0.03 0.03 65 1016.5
20260902075521 14 294 6.4 16.1 0.00 0.03 0.03 65 1016.5
20260902075015 14 284 3.2 11.3 0.00 0.03 0.03 66 1016.5
20260902074535 14 280 3.2 14.5 0.00 0.03 0.03 66 1016.6
20260902074016 14 280 3.2 14.5 0.00 0.03 0.03 66 1016.6
20260902073515 14 272 3.2 14.5 0.00 0.03 0.03 66 1016.5
20260902073034 14 290 3.2 12.9 0.00 0.03 0.03 66 1016.5
20260902072515 14 298 3.2 12.9 0.00 0.25 0.03 66 1016.5
20260902072023 14 297 3.2 12.9 0.00 0.25 0.03 66 1016.5
20260902071534 14 305 4.8 12.9 0.00 0.25 0.03 66 1016.5
20260902071019 14 212 1.6 12.9 0.00 0.25 0.03 66 1016.6
20260902070518 14 208 0.0 12.9 0.00 0.25 0.03 65 1016.5
20260902070033 14 200 3.2 12.9 0.00 0.25 0.03 65 1016.7
20260902065519 15 234 3.2 9.7 0.00 0.25 0.03 65 1016.7
20260902065016 15 229 3.2 11.3 0.00 0.25 0.03 64 1016.6
20260902064532 15 224 4.8 12.9 0.00 0.25 0.03 64 1016.5
20260902064015 15 233 3.2 12.9 0.00 0.25 0.03 64 1016.5
20260902063522 15 227 3.2 12.9 0.00 0.25 0.03 63 1016.5
20260902063042 15 0 1.6 11.3 0.00 0.25 0.03 63 1016.5
20260902062523 15 210 3.2 11.3 0.00 0.36 0.03 63 1016.5
20260902062019 15 192 3.2 11.3 0.00 0.36 0.03 63 1016.5
20260902061548 15 271 1.6 9.7 0.00 0.36 0.03 62 1016.5
20260902061019 15 270 3.2 9.7 0.00 0.36 0.03 61 1016.5
20260902060518 15 271 3.2 11.3 0.00 0.36 0.03 61 1016.6
20260902060031 16 274 3.2 11.3 0.00 0.36 0.03 61 1016.6
20260902055519 16 260 1.6 9.7 0.00 0.36 0.03 61 1016.6
20260902055019 16 262 3.2 9.7 0.00 0.36 0.03 61 1016.6
20260902054535 16 259 3.2 12.9 0.00 0.36 0.03 60 1016.6
20260902054018 16 247 4.8 12.9 0.00 0.36 0.03 60 1016.6
20260902053518 16 247 3.2 8.0 0.00 0.36 0.03 60 1016.6
20260902053031 16 247 1.6 12.9 0.00 0.36 0.03 60 1016.7
20260902052522 16 259 3.2 12.9 0.00 0.36 0.03 59 1016.7
20260902052017 16 263 3.2 9.7 0.00 0.36 0.03 59 1016.8
20260902051534 16 269 1.6 9.7 0.00 0.36 0.03 60 1016.8
20260902051019 16 268 3.2 9.7 0.00 0.36 0.03 60 1016.8
20260902050519 16 255 0.0 9.7 0.00 0.36 0.03 59 1016.8
20260902050056 16 255 3.2 12.9 0.00 0.36 0.03 60 1016.9
20260902045518 16 260 3.2 12.9 0.00 0.36 0.03 59 1016.8
20260902045022 16 288 1.6 11.3 0.00 0.36 0.03 60 1016.9
20260902044536 16 286 3.2 11.3 0.00 0.36 0.03 59 1016.9
20260902044021 16 290 3.2 12.9 0.00 0.36 0.03 58 1016.9
20260902043518 16 300 3.2 12.9 0.00 0.36 0.03 58 1016.9
20260902043037 16 278 3.2 11.3 0.00 0.36 0.03 58 1017.0
20260902042521 16 282 3.2 11.3 0.00 0.36 0.03 58 1016.9
20260902042020 16 282 3.2 11.3 0.00 0.36 0.03 58 1016.8
20260902041535 16 303 3.2 17.7 0.00 0.36 0.03 59 1017.1
20260902041018 16 281 4.8 17.7 0.00 0.36 0.03 58 1017.0
20260902040519 16 255 3.2 14.5 0.00 0.36 0.03 57 1017.0
20260902040035 16 257 4.8 16.1 0.00 0.36 0.03 58 1017.2
20260902035518 16 260 6.4 16.1 0.00 0.36 0.03 59 1017.3
20260902035022 16 257 8.0 16.1 0.00 0.36 0.03 59 1017.3
20260902034532 16 277 3.2 14.5 0.00 0.36 0.03 59 1017.2
20260902034023 16 304 4.8 14.5 0.00 0.36 0.03 60 1017.2
20260902033515 16 250 3.2 16.1 0.00 0.36 0.03 61 1017.3
20260902033052 16 286 1.6 16.1 0.00 0.36 0.03 60 1017.3
20260902032520 16 280 4.8 16.1 0.00 0.36 0.03 60 1017.2
20260902032023 17 0 3.2 16.1 0.00 0.36 0.03 60 1017.3
20260902031532 17 230 4.8 12.9 0.00 0.36 0.03 60 1017.3
20260902031019 17 228 3.2 14.5 0.00 0.36 0.03 61 1017.4
20260902030518 17 200 6.4 16.1 0.00 0.36 0.03 61 1017.4
20260902030034 17 268 4.8 16.1 0.00 0.36 0.03 61 1017.4
20260902025520 17 298 4.8 12.9 0.00 0.36 0.03 62 1017.4
20260902025016 16 307 4.8 14.5 0.00 0.36 0.03 62 1017.4
20260902024543 16 315 3.2 14.5 0.00 0.36 0.03 62 1017.5
20260902024018 16 261 3.2 14.5 0.00 0.36 0.03 62 1017.7
20260902023515 16 259 3.2 14.5 0.00 0.36 0.03 62 1017.8
20260902023036 16 234 3.2 8.0 0.00 0.36 0.03 63 1017.9
20260902022518 16 252 1.6 9.7 0.00 0.36 0.03 63 1017.8
20260902022019 16 255 3.2 9.7 0.00 0.36 0.03 63 1017.7
20260902021534 16 271 3.2 9.7 0.00 0.36 0.03 64 1017.8
20260902021019 16 265 3.2 9.7 0.00 0.36 0.03 64 1017.9
20260902020519 15 281 1.6 9.7 0.00 0.36 0.03 65 1017.9
20260902020038 15 281 3.2 11.3 0.00 0.36 0.03 65 1018.1
20260902015519 15 279 3.2 11.3 0.00 0.36 0.03 65 1018.0